Regional Weather Roundup
Issued by NWS

Home | Current Version | Previous Version | Graphics & Text | Print | Product List | Glossary On
Versions: 1 2 3 4 5 6 7 8 9 10 11 12 13 14 15 16 17 18 19 20 21 22 23 24 25 26 27 28 29 30 31 32 33 34 35 36 37 38 39 40 41 42 43 44 45 46 47 48 49 50
000
ASUS43 KIND 161609
RWRIN

WEATHER ROUNDUP FOR INDIANA
NATIONAL WEATHER SERVICE INDIANAPOLIS IN
1100 AM EST MON JAN 16 2017

NOTE: "FAIR" INDICATES FEW OR NO CLOUDS BELOW 12,000 FEET WITH NO
SIGNIFICANT WEATHER AND/OR OBSTRUCTIONS TO VISIBILITY.

* - STATION DOES NOT REPORT WEATHER SUCH AS PRECIPITATION OR FOG.

+ - STATION NOT QUALITY CONTROLLED BY THE NATIONAL WEATHER SERVICE.
    USE DATA WITH CAUTION...ESPECIALLY DEWPOINT AND RELATIVE
    HUMIDITY OBSERVATIONS.

INZ001>003-010>013-019-020-161700-
NORTHWEST INDIANA

CITY           SKY/WX    TMP DP  RH WIND       PRES   REMARKS
GARY /AIRPORT/ FOG       34  34 100 VRB5      30.25F VSB 1   WCI  30
KNOX *+        CLOUDY    34  28  80 E6        30.26F VSB 3/4 WCI  29
LA PORTE +     MIX PCPN  32  32  99 E7        30.26F VSB 1   WCI  26
MICHIGAN CITY+ LGT RAIN  34  34 100 SE3       30.26F
MONTICELLO +   CLOUDY    34  33  95 NE3       30.25S FOG
RENSSELAER +   FOG       34  34 100 E7        30.24F VSB 1/2 WCI  28
VALPARAISO     FOG       34  33  96 E7        30.26F VSB 1/2 WCI  28

$$

LMZ046-743>745-161700-
SOUTHERN LAKE MICHIGAN

STATION/POSITION TIME  TEMP    WIND        PRES    WAVE
                       AIR SEA DIR/SP/G            HT
                 (UTC) (F)     (DEG/KT/KT) (MB)    (FT)
BURNS HARBOR     1540   32      80/  8/  9 1024.7F
MICHIGAN CITY    1540   32      80/  5/  6   N/A

$$

INZ004-005-014>016-021>024-161700-
NORTH CENTRAL INDIANA

CITY           SKY/WX    TMP DP  RH WIND       PRES   REMARKS
ELKHART        LGT RAIN  32  30  93 E6        30.28S FOG     WCI  26
GOSHEN         FOG       34  31  88 E6        30.28S VSB 1   WCI  29
LOGANSPORT +   FOG       34  34 100 E5        30.27R VSB 3/4 WCI  30
PERU/GRISSOM   CLOUDY    35  35 100 E8        30.23F FOG     WCI  28
ROCHESTER +    FOG       36  36 100 SE5       30.28R VSB 1
SOUTH BEND     MIX PCPN  32  30  92 E5        30.28S FOG     WCI  27
WARSAW +       LGT SNOW  32  30  93 E3        30.28R VSB 3/4

$$

INZ006>009-017-018-025>027-161700-
NORTHEAST INDIANA

CITY           SKY/WX    TMP DP  RH WIND       PRES   REMARKS
ANGOLA *+      CLOUDY    32  30  93 E3        30.29R
AUBURN +       CLOUDY    32  32 100 E3        30.30R FOG
FORT WAYNE     LGT RAIN  34  31  88 E8        30.29S FOG     WCI  27
HUNTINGTON +   CLOUDY    33  32  96 E6        30.28S FOG     WCI  27
KENDALLVILLE + MIX PCPN  32  32  99 CALM      30.29R

$$

INZ028-029-035-036-043>045-051>053-161700-
WEST CENTRAL INDIANA

CITY           SKY/WX    TMP DP  RH WIND       PRES   REMARKS
CRAWFORDSVL +  FOG       37  37 100 SE7       30.22S VSB 3/4
GREENCASTLE +  CLOUDY    39  39 100 SE7       30.24R FOG
LAFAYETTE      CLOUDY    38  37  97 E6        30.24S FOG
TERRE HAUTE    CLOUDY    42  40  92 SE7       30.21F FOG

$$

INZ030>032-037>040-046>048-054>057-064-065-161700-
CENTRAL INDIANA

CITY           SKY/WX    TMP DP  RH WIND       PRES   REMARKS
CP ATTERBURY + CLOUDY    41  39  93 SE6       30.26S FOG
COLUMBUS       CLOUDY    41  41 100 SE5       30.26F FOG
FISHERS *+     CLOUDY    39  39 100 SE6       30.25F
FRANKFORT +    FOG       40  39  96 SE9       30.24F VSB 3/4
GREENWOOD *+   CLOUDY    41  41  99 SE8       30.25F
INDIANAPOLIS   CLOUDY    41  39  93 SE8       30.24F FOG
-EAGLE CREEK   CLOUDY    41  38  89 SE9       30.23F FOG
KOKOMO +       CLOUDY    35  35 100 SE8       30.25F FOG     WCI  29
MARION +       CLOUDY    36  36 100 E5        30.27S FOG
MT COMFORT *+  CLOUDY    39  37  93 SE9       30.25F
SHELBYVILLE    CLOUDY    43  39  86 SE9       30.25F FOG
ZIONSVILLE +   CLOUDY    38  37  98 SE7       30.24F FOG

$$

INZ033-034-041-042-049-050-058-059-161700-
EAST CENTRAL INDIANA

CITY           SKY/WX    TMP DP  RH WIND       PRES   REMARKS
MUNCIE         CLOUDY    41  38  89 SE5       30.26S FOG

$$

INZ060-061-067>069-081>083-085>088-161700-
SOUTHWEST INDIANA

CITY           SKY/WX    TMP DP  RH WIND       PRES   REMARKS
EVANSVILLE     CLOUDY    48  45  89 VRB3      30.21F FOG
HUNTINGBURG *+ CLOUDY    48  46  93 E7        30.22F
WASHINGTON +   CLOUDY    45  43  94 SE8       30.22F FOG

$$

INZ062-063-066-070>080-084-089>092-161700-
SOUTH CENTRAL AND SOUTHEAST INDIANA

CITY           SKY/WX    TMP DP  RH WIND       PRES   REMARKS
BLOOMINGTON    FOG       41  40  96 S8        30.24R VSB 1/4
MADISON *+     CLOUDY    43  41  93 SE5       30.28F
NORTH VERNON + CLOUDY   N/A N/A N/A E5        30.27F HAZE
SEYMOUR +      CLOUDY    45  43  93 SE6       30.26F FOG

$$





USA.gov is the U.S. government's official web portal to all federal, state and local government web resources and services.